| time (UTC) | temp C | wind direction | speed KPH | gust KPH | rain 1hr cm | rain 24hr cm | rain mn cm | humidity % | barometer mb |
| 20260505121619 | 7 | 51 | 0.0 | 6.4 | 0.08 | 0.66 | 0.66 | 88 | 1008.3 |
| 20260505120626 | 7 | 288 | 1.6 | 4.8 | 0.05 | 0.61 | 0.61 | 88 | 1008.4 |
| 20260505115651 | 7 | 288 | 1.6 | 6.4 | 0.05 | 0.58 | 0.58 | 87 | 1008.2 |
| 20260505114620 | 7 | 288 | 0.0 | 0.0 | 0.05 | 0.58 | 0.58 | 86 | 1008.0 |
| 20260505113628 | 7 | 288 | 0.0 | 6.4 | 0.05 | 0.58 | 0.58 | 85 | 1007.9 |
| 20260505112617 | 7 | 287 | 8.0 | 11.3 | 0.08 | 0.58 | 0.58 | 84 | 1007.9 |
| 20260505111649 | 7 | 61 | 6.4 | 16.1 | 0.15 | 0.58 | 0.58 | 84 | 1007.7 |
| 20260505110615 | 7 | 114 | 8.0 | 16.1 | 0.25 | 0.56 | 0.56 | 85 | 1007.8 |
| 20260505101632 | 7 | 117 | 4.8 | 9.7 | 0.33 | 0.43 | 0.43 | 87 | 1008.7 |
| 20260505100640 | 7 | 132 | 3.2 | 6.4 | 0.20 | 0.30 | 0.30 | 86 | 1008.9 |
| 20260505095626 | 8 | 130 | 0.0 | 4.8 | 0.10 | 0.20 | 0.20 | 84 | 1009.0 |
| 20260505094618 | 8 | 130 | 3.2 | 4.8 | 0.03 | 0.13 | 0.13 | 82 | 1009.0 |
| 20260505093627 | 8 | 130 | 4.8 | 11.3 | 0.03 | 0.10 | 0.10 | 80 | 1008.8 |
| 20260505092613 | 8 | 161 | 0.0 | 9.7 | 0.08 | 0.10 | 0.10 | 78 | 1008.6 |
| 20260505091620 | 8 | 190 | 4.8 | 8.0 | 0.10 | 0.10 | 0.10 | 77 | 1008.4 |
| 20260505090622 | 8 | 91 | 4.8 | 14.5 | 0.10 | 0.10 | 0.10 | 77 | 1008.0 |
| 20260505085621 | 8 | 94 | 8.0 | 14.5 | 0.10 | 0.10 | 0.10 | 76 | 1007.9 |
| 20260505084629 | 9 | 28 | 8.0 | 14.5 | 0.10 | 0.10 | 0.10 | 75 | 1007.8 |
| 20260505083621 | 9 | 155 | 16.1 | 19.3 | 0.08 | 0.08 | 0.08 | 73 | 1007.8 |
| 20260505082628 | 10 | 94 | 9.7 | 12.9 | 0.03 | 0.03 | 0.03 | 64 | 1007.9 |
| 20260505081615 | 11 | 63 | 4.8 | 17.7 | 0.00 | 0.00 | 0.00 | 56 | 1008.0 |
| 20260505080624 | 11 | 13 | 16.1 | 25.7 | 0.00 | 0.00 | 0.00 | 52 | 1007.8 |
| 20260505075628 | 11 | 63 | 8.0 | 16.1 | 0.00 | 0.00 | 0.00 | 49 | 1007.5 |
| 20260505074618 | 11 | 58 | 6.4 | 16.1 | 0.00 | 0.00 | 0.00 | 50 | 1007.7 |
| 20260505073625 | 11 | 46 | 12.9 | 16.1 | 0.00 | 0.00 | 0.00 | 53 | 1007.7 |
| 20260505072613 | 10 | 101 | 12.9 | 19.3 | 0.00 | 0.00 | 0.00 | 56 | 1007.7 |
| 20260505071627 | 9 | 119 | 9.7 | 14.5 | 0.00 | 0.00 | 0.00 | 57 | 1007.5 |
| 20260505070636 | 9 | 126 | 9.7 | 12.9 | 0.00 | 0.00 | 0.00 | 56 | 1007.4 |
| 20260505065653 | 9 | 109 | 9.7 | 12.9 | 0.00 | 0.00 | 0.00 | 55 | 1007.4 |
| 20260505064640 | 10 | 107 | 11.3 | 12.9 | 0.00 | 0.00 | 0.00 | 52 | 1007.4 |
| 20260505063626 | 10 | 148 | 3.2 | 9.7 | 0.00 | 0.00 | 0.00 | 51 | 1007.5 |
| 20260505062617 | 10 | 134 | 6.4 | 6.4 | 0.00 | 0.00 | 0.00 | 51 | 1007.5 |
| 20260505061627 | 11 | 135 | 3.2 | 6.4 | 0.00 | 0.00 | 0.00 | 50 | 1007.3 |
| 20260505060615 | 11 | 136 | 6.4 | 11.3 | 0.00 | 0.00 | 0.00 | 49 | 1007.2 |
| 20260505055627 | 11 | 178 | 3.2 | 8.0 | 0.00 | 0.00 | 0.00 | 48 | 1007.3 |
| 20260505054616 | 11 | 180 | 0.0 | 1.6 | 0.00 | 0.00 | 0.00 | 48 | 1007.2 |
| 20260505053646 | 12 | 179 | 0.0 | 8.0 | 0.00 | 0.00 | 0.00 | 47 | 1007.2 |
| 20260505052619 | 11 | 90 | 3.2 | 11.3 | 0.00 | 0.00 | 0.00 | 49 | 1007.2 |
| 20260505051625 | 11 | 85 | 6.4 | 17.7 | 0.00 | 0.00 | 0.00 | 51 | 1007.3 |
| 20260505050615 | 13 | 295 | 9.7 | 19.3 | 0.00 | 0.00 | 0.00 | 47 | 1007.5 |
| 20260505041623 | 12 | 109 | 6.4 | 16.1 | 0.00 | 0.00 | 0.00 | 42 | 1006.9 |
| 20260505040615 | 12 | 155 | 8.0 | 14.5 | 0.00 | 0.00 | 0.00 | 42 | 1007.0 |
| 20260505035614 | 12 | 108 | 11.3 | 19.3 | 0.00 | 0.00 | 0.00 | 41 | 1006.8 |
| 20260505034622 | 12 | 76 | 9.7 | 17.7 | 0.00 | 0.00 | 0.00 | 42 | 1006.6 |
| 20260505033648 | 12 | 121 | 11.3 | 16.1 | 0.00 | 0.00 | 0.00 | 43 | 1006.5 |
| 20260505032621 | 12 | 138 | 9.7 | 14.5 | 0.00 | 0.00 | 0.00 | 43 | 1006.5 |
| 20260505031627 | 12 | 115 | 11.3 | 14.5 | 0.00 | 0.00 | 0.00 | 43 | 1006.4 |
| 20260505030638 | 12 | 111 | 9.7 | 14.5 | 0.00 | 0.00 | 0.00 | 42 | 1006.4 |
| 20260505025635 | 13 | 116 | 6.4 | 11.3 | 0.00 | 0.00 | 0.00 | 42 | 1006.2 |
| 20260505024622 | 13 | 160 | 6.4 | 9.7 | 0.00 | 0.00 | 0.00 | 41 | 1006.0 |
| 20260505023612 | 14 | 192 | 4.8 | 11.3 | 0.00 | 0.00 | 0.00 | 40 | 1005.9 |
| 20260505022644 | 15 | 124 | 6.4 | 11.3 | 0.00 | 0.00 | 0.00 | 39 | 1005.7 |
| 20260505021633 | 15 | 150 | 4.8 | 9.7 | 0.00 | 0.00 | 0.00 | 37 | 1005.8 |
| 20260505020623 | 15 | 127 | 8.0 | 12.9 | 0.00 | 0.00 | 0.00 | 36 | 1005.6 |
| 20260505015622 | 16 | 173 | 3.2 | 4.8 | 0.00 | 0.00 | 0.00 | 38 | 1005.7 |
| 20260505014631 | 15 | 15 | 1.6 | 8.0 | 0.00 | 0.00 | 0.00 | 36 | 1005.6 |
| 20260505013620 | 15 | 13 | 4.8 | 9.7 | 0.00 | 0.00 | 0.00 | 39 | 1005.8 |
| 20260505012647 | 15 | 290 | 6.4 | 14.5 | 0.00 | 0.00 | 0.00 | 39 | 1005.8 |
| 20260505011654 | 15 | 11 | 6.4 | 17.7 | 0.00 | 0.00 | 0.00 | 41 | 1006.0 |
| 20260505010624 | 15 | 306 | 11.3 | 17.7 | 0.00 | 0.00 | 0.00 | 45 | 1006.0 |
| 20260505005624 | 16 | 266 | 17.7 | 25.7 | 0.00 | 0.00 | 0.00 | 39 | 1006.0 |
| 20260505004631 | 15 | 298 | 14.5 | 33.8 | 0.00 | 0.00 | 0.00 | 43 | 1005.6 |
| 20260505003619 | 16 | 266 | 14.5 | 30.6 | 0.00 | 0.00 | 0.00 | 42 | 1005.8 |
| 20260505002629 | 18 | 277 | 16.1 | 30.6 | 0.00 | 0.00 | 0.00 | 39 | 1005.6 |
| 20260505001616 | 20 | 300 | 8.0 | 14.5 | 0.00 | 0.00 | 0.00 | 25 | 1005.4 |
| 20260505000645 | 20 | 309 | 4.8 | 8.0 | 0.00 | 0.00 | 0.00 | 28 | 1005.2 |
| 20260504235625 | 20 | 289 | 4.8 | 8.0 | 0.00 | 0.00 | 0.00 | 21 | 1005.2 |
| 20260504234616 | 20 | 284 | 3.2 | 6.4 | 0.00 | 0.00 | 0.00 | 20 | 1005.1 |
| 20260504233648 | 21 | 284 | 3.2 | 8.0 | 0.00 | 0.00 | 0.00 | 19 | 1005.2 |
| 20260504232614 | 21 | 290 | 4.8 | 12.9 | 0.00 | 0.00 | 0.00 | 21 | 1005.2 |
| 20260504231643 | 21 | 326 | 0.0 | 8.0 | 0.00 | 0.00 | 0.00 | 22 | 1005.2 |
| 20260504230630 | 21 | 308 | 4.8 | 9.7 | 0.00 | 0.00 | 0.00 | 21 | 1005.3 |
| 20260504225630 | 21 | 315 | 6.4 | 12.9 | 0.00 | 0.00 | 0.00 | 23 | 1005.3 |
| 20260504224639 | 20 | 279 | 9.7 | 14.5 | 0.00 | 0.00 | 0.00 | 23 | 1005.4 |
| 20260504223628 | 20 | 303 | 9.7 | 16.1 | 0.00 | 0.00 | 0.00 | 23 | 1005.5 |
| 20260504222618 | 21 | 286 | 9.7 | 17.7 | 0.00 | 0.00 | 0.00 | 22 | 1005.5 |
| 20260504221631 | 20 | 302 | 12.9 | 19.3 | 0.00 | 0.00 | 0.00 | 22 | 1005.6 |
| 20260504220619 | 21 | 300 | 12.9 | 19.3 | 0.00 | 0.00 | 0.00 | 22 | 1005.8 |
| 20260504215620 | 21 | 327 | 6.4 | 16.1 | 0.00 | 0.00 | 0.00 | 21 | 1005.9 |
| 20260504214630 | 21 | 347 | 8.0 | 17.7 | 0.00 | 0.00 | 0.00 | 21 | 1006.1 |
| 20260504213622 | 21 | 294 | 8.0 | 16.1 | 0.00 | 0.00 | 0.00 | 22 | 1006.1 |
| 20260504212629 | 21 | 295 | 8.0 | 17.7 | 0.00 | 0.00 | 0.00 | 23 | 1006.4 |
| 20260504211617 | 21 | 286 | 9.7 | 14.5 | 0.00 | 0.00 | 0.00 | 21 | 1006.4 |
| 20260504210624 | 21 | 309 | 4.8 | 14.5 | 0.00 | 0.00 | 0.00 | 24 | 1006.7 |
| 20260504205628 | 20 | 287 | 6.4 | 12.9 | 0.00 | 0.00 | 0.00 | 22 | 1006.7 |
| 20260504204618 | 19 | 300 | 3.2 | 8.0 | 0.00 | 0.00 | 0.00 | 25 | 1006.8 |
| 20260504203626 | 18 | 154 | 3.2 | 9.7 | 0.00 | 0.00 | 0.00 | 23 | 1007.0 |
| 20260504202613 | 18 | 82 | 6.4 | 11.3 | 0.00 | 0.00 | 0.00 | 24 | 1007.0 |
| 20260504201625 | 17 | 14 | 4.8 | 9.7 | 0.00 | 0.00 | 0.00 | 26 | 1007.2 |
| 20260504200615 | 17 | 94 | 8.0 | 16.1 | 0.00 | 0.00 | 0.00 | 24 | 1007.5 |
| 20260504195617 | 16 | 5 | 9.7 | 17.7 | 0.00 | 0.00 | 0.00 | 28 | 1007.6 |
| 20260504194647 | 16 | 136 | 4.8 | 41.8 | 0.00 | 0.00 | 0.00 | 26 | 1007.9 |
| 20260504193620 | 16 | 205 | 11.3 | 40.2 | 0.00 | 0.00 | 0.00 | 30 | 1008.3 |
| 20260504192630 | 16 | 300 | 11.3 | 22.5 | 0.00 | 0.00 | 0.00 | 32 | 1008.4 |
| 20260504191619 | 15 | 187 | 8.0 | 16.1 | 0.00 | 0.00 | 0.00 | 42 | 1008.3 |
| 20260504190613 | 14 | 167 | 4.8 | 22.5 | 0.00 | 0.00 | 0.00 | 45 | 1008.3 |
| 20260504185615 | 14 | 137 | 11.3 | 17.7 | 0.00 | 0.00 | 0.00 | 50 | 1008.3 |
| 20260504184625 | 13 | 301 | 8.0 | 19.3 | 0.00 | 0.00 | 0.00 | 54 | 1008.4 |
| 20260504183636 | 15 | 277 | 8.0 | 17.7 | 0.00 | 0.00 | 0.00 | 56 | 1008.3 |
| 20260504182623 | 16 | 284 | 9.7 | 16.1 | 0.00 | 0.00 | 0.00 | 54 | 1008.3 |
| 20260504181637 | 17 | 302 | 6.4 | 12.9 | 0.00 | 0.00 | 0.00 | 55 | 1008.3 |
| 20260504180616 | 16 | 301 | 8.0 | 12.9 | 0.00 | 0.00 | 0.00 | 56 | 1008.3 |
| 20260504175616 | 16 | 293 | 8.0 | 16.1 | 0.00 | 0.00 | 0.00 | 56 | 1008.6 |
| 20260504174624 | 16 | 318 | 4.8 | 11.3 | 0.00 | 0.00 | 0.00 | 59 | 1008.6 |
| 20260504173613 | 15 | 311 | 4.8 | 11.3 | 0.00 | 0.00 | 0.00 | 60 | 1008.7 |
| 20260504172645 | 14 | 322 | 6.4 | 12.9 | 0.00 | 0.00 | 0.00 | 62 | 1008.9 |
| 20260504171613 | 13 | 289 | 6.4 | 11.3 | 0.00 | 0.00 | 0.00 | 63 | 1008.9 |
| 20260504170642 | 13 | 267 | 6.4 | 12.9 | 0.00 | 0.00 | 0.00 | 63 | 1008.9 |
| 20260504150621 | 12 | 296 | 4.8 | 9.7 | 0.00 | 0.00 | 0.00 | 50 | 1009.3 |